Year,Month,Day,Hour,Minute,Value (Times are PST for temperature in C)
2009,02,01,00,00,1.80
2009,02,01,00,01,1.80
2009,02,01,00,02,1.70
2009,02,01,00,03,1.70
2009,02,01,00,04,1.70
2009,02,01,00,05,1.70
2009,02,01,00,06,1.60
2009,02,01,00,07,1.60
2009,02,01,00,08,1.60
2009,02,01,00,09,1.60
2009,02,01,00,10,1.50
2009,02,01,00,11,1.50
2009,02,01,00,12,1.50
2009,02,01,00,13,1.50
2009,02,01,00,14,1.60
2009,02,01,00,15,1.60
2009,02,01,00,16,1.60
2009,02,01,00,17,1.60
2009,02,01,00,18,1.60
2009,02,01,00,19,1.70
2009,02,01,00,20,1.80
2009,02,01,00,21,1.80
2009,02,01,00,22,1.90
2009,02,01,00,23,1.90
2009,02,01,00,24,1.90
2009,02,01,00,25,1.90
2009,02,01,00,26,1.80
2009,02,01,00,27,1.80
2009,02,01,00,28,1.80
2009,02,01,00,29,1.70
2009,02,01,00,30,1.60
2009,02,01,00,31,1.60
2009,02,01,00,32,1.50
2009,02,01,00,33,1.50
2009,02,01,00,34,1.40
2009,02,01,00,35,1.40
2009,02,01,00,36,1.40
2009,02,01,00,37,1.40
2009,02,01,00,38,1.30
2009,02,01,00,39,1.30
2009,02,01,00,40,1.30
2009,02,01,00,41,1.20
2009,02,01,00,42,1.20
2009,02,01,00,43,1.10
2009,02,01,00,44,1.10
2009,02,01,00,45,1.10
2009,02,01,00,46,1.00
2009,02,01,00,47,1.00
2009,02,01,00,48,1.00
2009,02,01,00,49,1.00
2009,02,01,00,50,1.00
2009,02,01,00,51,1.10
2009,02,01,00,52,1.10
2009,02,01,00,53,1.10
2009,02,01,00,54,1.10
2009,02,01,00,55,1.10
2009,02,01,00,56,1.10
2009,02,01,00,57,1.10
2009,02,01,00,58,1.10
2009,02,01,00,59,1.20
2009,02,01,01,00,1.20
2009,02,01,01,01,1.20
2009,02,01,01,02,1.20
2009,02,01,01,03,1.10
2009,02,01,01,04,1.10
2009,02,01,01,05,1.20
2009,02,01,01,06,1.20
2009,02,01,01,07,1.10
2009,02,01,01,08,1.10
2009,02,01,01,09,1.10
2009,02,01,01,10,1.10
2009,02,01,01,11,1.10
2009,02,01,01,12,1.10
2009,02,01,01,13,1.20
2009,02,01,01,14,1.30
2009,02,01,01,15,1.30
2009,02,01,01,16,1.40
2009,02,01,01,17,1.50
2009,02,01,01,18,1.60
2009,02,01,01,19,1.70
2009,02,01,01,20,1.80
2009,02,01,01,21,1.90
2009,02,01,01,22,1.90
2009,02,01,01,23,2.00
2009,02,01,01,24,2.00
2009,02,01,01,25,2.00
2009,02,01,01,26,2.00
2009,02,01,01,27,2.00
2009,02,01,01,28,2.00
2009,02,01,01,29,2.00
2009,02,01,01,30,2.00
2009,02,01,01,31,2.00
2009,02,01,01,32,1.90
2009,02,01,01,33,1.90
2009,02,01,01,34,1.90
2009,02,01,01,35,1.90
2009,02,01,01,36,1.80
2009,02,01,01,37,1.80
2009,02,01,01,38,1.80
2009,02,01,01,39,1.80
2009,02,01,01,40,1.80
2009,02,01,01,41,1.80
2009,02,01,01,42,1.70
2009,02,01,01,43,1.70
2009,02,01,01,44,1.70
2009,02,01,01,45,1.70
2009,02,01,01,46,1.70
2009,02,01,01,47,1.70
2009,02,01,01,48,1.60
2009,02,01,01,49,1.60
2009,02,01,01,50,1.60
2009,02,01,01,51,1.60
2009,02,01,01,52,1.60
2009,02,01,01,53,1.60
2009,02,01,01,54,1.60
2009,02,01,01,55,1.60
2009,02,01,01,56,1.60
2009,02,01,01,57,1.60
2009,02,01,01,58,1.60
2009,02,01,01,59,1.70
2009,02,01,02,00,1.70
2009,02,01,02,01,1.70
2009,02,01,02,02,1.80
2009,02,01,02,03,1.80
2009,02,01,02,04,1.90
2009,02,01,02,05,1.90
2009,02,01,02,06,2.00
2009,02,01,02,07,2.10
2009,02,01,02,08,2.10
2009,02,01,02,09,2.20
2009,02,01,02,10,2.20
2009,02,01,02,11,2.20
2009,02,01,02,12,2.20
2009,02,01,02,13,2.20
2009,02,01,02,14,2.20
2009,02,01,02,15,2.30
2009,02,01,02,16,2.30
2009,02,01,02,17,2.40
2009,02,01,02,18,2.40
2009,02,01,02,19,2.50
2009,02,01,02,20,2.50
2009,02,01,02,21,2.50
2009,02,01,02,22,2.50
2009,02,01,02,23,2.50
2009,02,01,02,24,2.40
2009,02,01,02,25,2.40
2009,02,01,02,26,2.40
2009,02,01,02,27,2.30
2009,02,01,02,28,2.30
2009,02,01,02,29,2.20
2009,02,01,02,30,2.20
2009,02,01,02,31,2.20
2009,02,01,02,32,2.10
2009,02,01,02,33,2.00
2009,02,01,02,34,1.90
2009,02,01,02,35,1.90
2009,02,01,02,36,1.80
2009,02,01,02,37,1.70
2009,02,01,02,38,1.70
2009,02,01,02,39,1.60
2009,02,01,02,40,1.60
2009,02,01,02,41,1.50
2009,02,01,02,42,1.50
2009,02,01,02,43,1.50
2009,02,01,02,44,1.40
2009,02,01,02,45,1.40
2009,02,01,02,46,1.40
2009,02,01,02,47,1.40
2009,02,01,02,48,1.50
2009,02,01,02,49,1.60
2009,02,01,02,50,1.60
2009,02,01,02,51,1.70
2009,02,01,02,52,1.80
2009,02,01,02,53,1.80
2009,02,01,02,54,1.90
2009,02,01,02,55,2.00
2009,02,01,02,56,2.00
2009,02,01,02,57,2.00
2009,02,01,02,58,2.00
2009,02,01,02,59,2.00
2009,02,01,03,00,2.00
2009,02,01,03,01,2.00
2009,02,01,03,02,2.00
2009,02,01,03,03,1.90
2009,02,01,03,04,1.90
2009,02,01,03,05,1.90
2009,02,01,03,06,1.90
2009,02,01,03,07,1.80
2009,02,01,03,08,1.80
2009,02,01,03,09,1.80
2009,02,01,03,10,1.80
2009,02,01,03,11,1.70
2009,02,01,03,12,1.70
2009,02,01,03,13,1.70
2009,02,01,03,14,1.70
2009,02,01,03,15,1.70
2009,02,01,03,16,1.70
2009,02,01,03,17,1.70
2009,02,01,03,18,1.70
2009,02,01,03,19,1.70
2009,02,01,03,20,1.70
2009,02,01,03,21,1.70
2009,02,01,03,22,1.70
2009,02,01,03,23,1.70
2009,02,01,03,24,1.70
2009,02,01,03,25,1.70
2009,02,01,03,26,1.70
2009,02,01,03,27,1.70
2009,02,01,03,28,1.70
2009,02,01,03,29,1.70
2009,02,01,03,30,1.70
2009,02,01,03,31,1.70
2009,02,01,03,32,1.70
2009,02,01,03,33,1.70
2009,02,01,03,34,1.70
2009,02,01,03,35,1.60
2009,02,01,03,36,1.60
2009,02,01,03,37,1.50
2009,02,01,03,38,1.50
2009,02,01,03,39,1.50
2009,02,01,03,40,1.40
2009,02,01,03,41,1.40
2009,02,01,03,42,1.40
2009,02,01,03,43,1.30
2009,02,01,03,44,1.30
2009,02,01,03,45,1.30
2009,02,01,03,46,1.30
2009,02,01,03,47,1.20
2009,02,01,03,48,1.20
2009,02,01,03,49,1.10
2009,02,01,03,50,1.10
2009,02,01,03,51,1.10
2009,02,01,03,52,1.10
2009,02,01,03,53,1.20
2009,02,01,03,54,1.20
2009,02,01,03,55,1.30
2009,02,01,03,56,1.30
2009,02,01,03,57,1.30
2009,02,01,03,58,1.30
2009,02,01,03,59,1.30
2009,02,01,04,00,1.30
2009,02,01,04,01,1.40
2009,02,01,04,02,1.40
2009,02,01,04,03,1.40
2009,02,01,04,04,1.40
2009,02,01,04,05,1.30
2009,02,01,04,06,1.30
2009,02,01,04,07,1.30
2009,02,01,04,08,1.30
2009,02,01,04,09,1.30
2009,02,01,04,10,1.30
2009,02,01,04,11,1.30
2009,02,01,04,12,1.30
2009,02,01,04,13,1.30
2009,02,01,04,14,1.30
2009,02,01,04,15,1.30
2009,02,01,04,16,1.30
2009,02,01,04,17,1.30
2009,02,01,04,18,1.40
2009,02,01,04,19,1.50
2009,02,01,04,20,1.50
2009,02,01,04,21,1.60
2009,02,01,04,22,1.60
2009,02,01,04,23,1.60
2009,02,01,04,24,1.70
2009,02,01,04,25,1.70
2009,02,01,04,26,1.70
2009,02,01,04,27,1.70
2009,02,01,04,28,1.80
2009,02,01,04,29,1.80
2009,02,01,04,30,1.80
2009,02,01,04,31,1.80
2009,02,01,04,32,1.80
2009,02,01,04,33,1.90
2009,02,01,04,34,2.00
2009,02,01,04,35,2.00
2009,02,01,04,36,2.10
2009,02,01,04,37,2.10
2009,02,01,04,38,2.10
2009,02,01,04,39,2.20
2009,02,01,04,40,2.20
2009,02,01,04,41,2.20
2009,02,01,04,42,2.20
2009,02,01,04,43,2.30
2009,02,01,04,44,2.30
2009,02,01,04,45,2.30
2009,02,01,04,46,2.40
2009,02,01,04,47,2.40
2009,02,01,04,48,2.40
2009,02,01,04,49,2.40
2009,02,01,04,50,2.40
2009,02,01,04,51,2.40
2009,02,01,04,52,2.40
2009,02,01,04,53,2.40
2009,02,01,04,54,2.40
2009,02,01,04,55,2.40
2009,02,01,04,56,2.50
2009,02,01,04,57,2.50
2009,02,01,04,58,2.50
2009,02,01,04,59,2.50
2009,02,01,05,00,2.50
2009,02,01,05,01,2.50
2009,02,01,05,02,2.60
2009,02,01,05,03,2.60
2009,02,01,05,04,2.60
2009,02,01,05,05,2.60
2009,02,01,05,06,2.70
2009,02,01,05,07,2.70
2009,02,01,05,08,2.70
2009,02,01,05,09,2.70
2009,02,01,05,10,2.70
2009,02,01,05,11,2.70
2009,02,01,05,12,2.70
2009,02,01,05,13,2.70
2009,02,01,05,14,2.70
2009,02,01,05,15,2.70
2009,02,01,05,16,2.70
2009,02,01,05,17,2.70
2009,02,01,05,18,2.70
2009,02,01,05,19,2.70
2009,02,01,05,20,2.70
2009,02,01,05,21,2.80
2009,02,01,05,22,2.80
2009,02,01,05,23,2.80
2009,02,01,05,24,2.80
2009,02,01,05,25,2.70
2009,02,01,05,26,2.70
2009,02,01,05,27,2.70
2009,02,01,05,28,2.70
2009,02,01,05,29,2.70
2009,02,01,05,30,2.70
2009,02,01,05,31,2.70
2009,02,01,05,32,2.70
2009,02,01,05,33,2.70
2009,02,01,05,34,2.70
2009,02,01,05,35,2.70
2009,02,01,05,36,2.70
2009,02,01,05,37,2.70
2009,02,01,05,38,2.70
2009,02,01,05,39,2.70
2009,02,01,05,40,2.70
2009,02,01,05,41,2.70
2009,02,01,05,42,2.70
2009,02,01,05,43,2.70
2009,02,01,05,44,2.70
2009,02,01,05,45,2.70
2009,02,01,05,46,2.70
2009,02,01,05,47,2.70
2009,02,01,05,48,2.70
2009,02,01,05,49,2.70
2009,02,01,05,50,2.70
2009,02,01,05,51,2.70
2009,02,01,05,52,2.70
2009,02,01,05,53,2.70
2009,02,01,05,54,2.70
2009,02,01,05,55,2.80
2009,02,01,05,56,2.80
2009,02,01,05,57,2.80
2009,02,01,05,58,2.80
2009,02,01,05,59,2.80
2009,02,01,06,00,2.90
2009,02,01,06,01,2.90
2009,02,01,06,02,3.00
2009,02,01,06,03,3.10
2009,02,01,06,04,3.10
2009,02,01,06,05,3.20
2009,02,01,06,06,3.20
2009,02,01,06,07,3.20
2009,02,01,06,08,3.30
2009,02,01,06,09,3.30
2009,02,01,06,10,3.30
2009,02,01,06,11,3.30
2009,02,01,06,12,3.30
2009,02,01,06,13,3.30
2009,02,01,06,14,3.30
2009,02,01,06,15,3.30
2009,02,01,06,16,3.30
2009,02,01,06,17,3.30
2009,02,01,06,18,3.30
2009,02,01,06,19,3.30
2009,02,01,06,20,3.30
2009,02,01,06,21,3.30
2009,02,01,06,22,3.30
2009,02,01,06,23,3.30
2009,02,01,06,24,3.30
2009,02,01,06,25,3.30
2009,02,01,06,26,3.30
2009,02,01,06,27,3.30
2009,02,01,06,28,3.30
2009,02,01,06,29,3.30
2009,02,01,06,30,3.30
2009,02,01,06,31,3.30
2009,02,01,06,32,3.30
2009,02,01,06,33,3.30
2009,02,01,06,34,3.30
2009,02,01,06,35,3.30
2009,02,01,06,36,3.30
2009,02,01,06,37,3.30
2009,02,01,06,38,3.40
2009,02,01,06,39,3.40
2009,02,01,06,40,3.30
2009,02,01,06,41,3.30
2009,02,01,06,42,3.40
2009,02,01,06,43,3.40
2009,02,01,06,44,3.40
2009,02,01,06,45,3.40
2009,02,01,06,46,3.40
2009,02,01,06,47,3.40
2009,02,01,06,48,3.40
2009,02,01,06,49,3.40
2009,02,01,06,50,3.40
2009,02,01,06,51,3.50
2009,02,01,06,52,3.50
2009,02,01,06,53,3.50
2009,02,01,06,54,3.50
2009,02,01,06,55,3.50
2009,02,01,06,56,3.50
2009,02,01,06,57,3.50
2009,02,01,06,58,3.50
2009,02,01,06,59,3.50
2009,02,01,07,00,3.50
2009,02,01,07,01,3.50
2009,02,01,07,02,3.60
2009,02,01,07,03,3.60
2009,02,01,07,04,3.60
2009,02,01,07,05,3.60
2009,02,01,07,06,3.60
2009,02,01,07,07,3.70
2009,02,01,07,08,3.70
2009,02,01,07,09,3.70
2009,02,01,07,10,3.70
2009,02,01,07,11,3.80
2009,02,01,07,12,3.80
2009,02,01,07,13,3.80
2009,02,01,07,14,3.80
2009,02,01,07,15,3.80
2009,02,01,07,16,3.80
2009,02,01,07,17,3.80
2009,02,01,07,18,3.80
2009,02,01,07,19,3.90
2009,02,01,07,20,3.90
2009,02,01,07,21,3.90
2009,02,01,07,22,3.90
2009,02,01,07,23,3.90
2009,02,01,07,24,3.90
2009,02,01,07,25,4.00
2009,02,01,07,26,4.00
2009,02,01,07,27,4.00
2009,02,01,07,28,4.10
2009,02,01,07,29,4.10
2009,02,01,07,30,4.10
2009,02,01,07,31,4.10
2009,02,01,07,32,4.20
2009,02,01,07,33,4.20
2009,02,01,07,34,4.20
2009,02,01,07,35,4.20
2009,02,01,07,36,4.20
2009,02,01,07,37,4.20
2009,02,01,07,38,4.20
2009,02,01,07,39,4.20
2009,02,01,07,40,4.20
2009,02,01,07,41,4.20
2009,02,01,07,42,4.20
2009,02,01,07,43,4.20
2009,02,01,07,44,4.20
2009,02,01,07,45,4.20
2009,02,01,07,46,4.20
2009,02,01,07,47,4.30
2009,02,01,07,48,4.30
2009,02,01,07,49,4.30
2009,02,01,07,50,4.30
2009,02,01,07,51,4.30
2009,02,01,07,52,4.30
2009,02,01,07,53,4.30
2009,02,01,07,54,4.30
2009,02,01,07,55,4.30
2009,02,01,07,56,4.40
2009,02,01,07,57,4.40
2009,02,01,07,58,4.40
2009,02,01,07,59,4.40
2009,02,01,08,00,4.40
2009,02,01,08,01,4.40
2009,02,01,08,02,4.40
2009,02,01,08,03,4.40
2009,02,01,08,04,4.40
2009,02,01,08,05,4.40
2009,02,01,08,06,4.40
2009,02,01,08,07,4.40
2009,02,01,08,08,4.40
2009,02,01,08,09,4.40
2009,02,01,08,10,4.40
2009,02,01,08,11,4.40
2009,02,01,08,12,4.40
2009,02,01,08,13,4.40
2009,02,01,08,14,4.40
2009,02,01,08,15,4.40
2009,02,01,08,16,4.40
2009,02,01,08,17,4.40
2009,02,01,08,18,4.40
2009,02,01,08,19,4.30
2009,02,01,08,20,4.30
2009,02,01,08,21,4.30
2009,02,01,08,22,4.30
2009,02,01,08,23,4.30
2009,02,01,08,24,4.30
2009,02,01,08,25,4.30
2009,02,01,08,26,4.30
2009,02,01,08,27,4.30
2009,02,01,08,28,4.30
2009,02,01,08,29,4.30
2009,02,01,08,30,4.30
2009,02,01,08,31,4.30
2009,02,01,08,32,4.30
2009,02,01,08,33,4.30
2009,02,01,08,34,4.30
2009,02,01,08,35,4.30
2009,02,01,08,36,4.30
2009,02,01,08,37,4.30
2009,02,01,08,38,4.30
2009,02,01,08,39,4.30
2009,02,01,08,40,4.30
2009,02,01,08,41,4.30
2009,02,01,08,42,4.30
2009,02,01,08,43,4.30
2009,02,01,08,44,4.30
2009,02,01,08,45,4.30
2009,02,01,08,46,4.30
2009,02,01,08,47,4.20
2009,02,01,08,48,4.20
2009,02,01,08,49,4.20
2009,02,01,08,50,4.20
2009,02,01,08,51,4.20
2009,02,01,08,52,4.20
2009,02,01,08,53,4.20
2009,02,01,08,54,4.20
2009,02,01,08,55,4.20
2009,02,01,08,56,4.20
2009,02,01,08,57,4.20
2009,02,01,08,58,4.20
2009,02,01,08,59,4.20
2009,02,01,09,00,4.20
2009,02,01,09,01,4.20
2009,02,01,09,02,4.20
2009,02,01,09,03,4.20
2009,02,01,09,04,4.20
2009,02,01,09,05,4.20
2009,02,01,09,06,4.20
2009,02,01,09,07,4.20
2009,02,01,09,08,4.20
2009,02,01,09,09,4.20
2009,02,01,09,10,4.20
2009,02,01,09,11,4.20
2009,02,01,09,12,4.20
2009,02,01,09,13,4.20
2009,02,01,09,14,4.20
2009,02,01,09,15,4.20
2009,02,01,09,16,4.20
2009,02,01,09,17,4.20
2009,02,01,09,18,4.20
2009,02,01,09,19,4.20
2009,02,01,09,20,4.20
2009,02,01,09,21,4.20
2009,02,01,09,22,4.20
2009,02,01,09,23,4.20
2009,02,01,09,24,4.20
2009,02,01,09,25,4.20
2009,02,01,09,26,4.20
2009,02,01,09,27,4.20
2009,02,01,09,28,4.20
2009,02,01,09,29,4.20
2009,02,01,09,30,4.20
2009,02,01,09,31,4.20
2009,02,01,09,32,4.20
2009,02,01,09,33,4.20
2009,02,01,09,34,4.20
2009,02,01,09,35,4.20
2009,02,01,09,36,4.30
2009,02,01,09,37,4.30
2009,02,01,09,38,4.30
2009,02,01,09,39,4.30
2009,02,01,09,40,4.40
2009,02,01,09,41,4.40
2009,02,01,09,42,4.40
2009,02,01,09,43,4.40
2009,02,01,09,44,4.40
2009,02,01,09,45,4.40
2009,02,01,09,46,4.40
2009,02,01,09,47,4.40
2009,02,01,09,48,4.50
2009,02,01,09,49,4.50
2009,02,01,09,50,4.50
2009,02,01,09,51,4.50
2009,02,01,09,52,4.50
2009,02,01,09,53,4.50
2009,02,01,09,54,4.50
2009,02,01,09,55,4.50
2009,02,01,09,56,4.50
2009,02,01,09,57,4.50
2009,02,01,09,58,4.50
2009,02,01,09,59,4.50
2009,02,01,10,00,4.50
2009,02,01,10,01,4.50
2009,02,01,10,02,4.50
2009,02,01,10,03,4.50
2009,02,01,10,04,4.60
2009,02,01,10,05,4.60
2009,02,01,10,06,4.60
2009,02,01,10,07,4.60
2009,02,01,10,08,4.60
2009,02,01,10,09,4.60
2009,02,01,10,10,4.60
2009,02,01,10,11,4.60
2009,02,01,10,12,4.60
2009,02,01,10,13,4.60
2009,02,01,10,14,4.60
2009,02,01,10,15,4.60
2009,02,01,10,16,4.60
2009,02,01,10,17,4.60
2009,02,01,10,18,4.60
2009,02,01,10,19,4.60
2009,02,01,10,20,4.60
2009,02,01,10,21,4.60
2009,02,01,10,22,4.60
2009,02,01,10,23,4.60
2009,02,01,10,24,4.50
2009,02,01,10,25,4.50
2009,02,01,10,26,4.50
2009,02,01,10,27,4.50
2009,02,01,10,28,4.50
2009,02,01,10,29,4.50
2009,02,01,10,30,4.50
2009,02,01,10,31,4.50
2009,02,01,10,32,4.50
2009,02,01,10,33,4.50
2009,02,01,10,34,4.50
2009,02,01,10,35,4.50
2009,02,01,10,36,4.60
2009,02,01,10,37,4.60
2009,02,01,10,38,4.60
2009,02,01,10,39,4.60
2009,02,01,10,40,4.60
2009,02,01,10,41,4.60
2009,02,01,10,42,4.60
2009,02,01,10,43,4.60
2009,02,01,10,44,4.60
2009,02,01,10,45,4.60
2009,02,01,10,46,4.70
2009,02,01,10,47,4.70
2009,02,01,10,48,4.70
2009,02,01,10,49,4.70
2009,02,01,10,50,4.70
2009,02,01,10,51,4.80
2009,02,01,10,52,4.80
2009,02,01,10,53,4.80
2009,02,01,10,54,4.80
2009,02,01,10,55,4.80
2009,02,01,10,56,4.80
2009,02,01,10,57,4.90
2009,02,01,10,58,4.90
2009,02,01,10,59,4.90
2009,02,01,11,00,4.90
2009,02,01,11,01,4.90
2009,02,01,11,02,4.90
2009,02,01,11,03,4.90
2009,02,01,11,04,4.90
2009,02,01,11,05,4.90
2009,02,01,11,06,4.90
2009,02,01,11,07,4.90
2009,02,01,11,08,5.00
2009,02,01,11,09,5.10
2009,02,01,11,10,5.10
2009,02,01,11,11,5.10
2009,02,01,11,12,5.10
2009,02,01,11,13,5.10
2009,02,01,11,14,5.10
2009,02,01,11,15,5.10
2009,02,01,11,16,5.10
2009,02,01,11,17,5.10
2009,02,01,11,18,5.10
2009,02,01,11,19,5.10
2009,02,01,11,20,5.10
2009,02,01,11,21,5.10
2009,02,01,11,22,5.10
2009,02,01,11,23,5.10
2009,02,01,11,24,5.10
2009,02,01,11,25,5.10
2009,02,01,11,26,5.10
2009,02,01,11,27,5.10
2009,02,01,11,28,5.10
2009,02,01,11,29,5.10
2009,02,01,11,30,5.10
2009,02,01,11,31,5.10
2009,02,01,11,32,5.10
2009,02,01,11,33,5.10
2009,02,01,11,34,5.10
2009,02,01,11,35,5.10
2009,02,01,11,36,5.20
2009,02,01,11,37,5.20
2009,02,01,11,38,5.20
2009,02,01,11,39,5.20
2009,02,01,11,40,5.20
2009,02,01,11,41,5.10
2009,02,01,11,42,5.20
2009,02,01,11,43,5.20
2009,02,01,11,44,5.20
2009,02,01,11,45,5.10
2009,02,01,11,46,5.20
2009,02,01,11,47,5.20
2009,02,01,11,48,5.10
2009,02,01,11,49,5.10
2009,02,01,11,50,5.10
2009,02,01,11,51,5.10
2009,02,01,11,52,5.10
2009,02,01,11,53,5.10
2009,02,01,11,54,5.20
2009,02,01,11,55,5.10
2009,02,01,11,56,5.20
2009,02,01,11,57,5.20
2009,02,01,11,58,5.10
2009,02,01,11,59,5.10
2009,02,01,12,00,5.10
2009,02,01,12,01,5.10
2009,02,01,12,02,5.10
2009,02,01,12,03,5.10
2009,02,01,12,04,5.10
2009,02,01,12,05,5.20
2009,02,01,12,06,5.20
2009,02,01,12,07,5.20
2009,02,01,12,08,5.20
2009,02,01,12,09,5.20
2009,02,01,12,10,5.20
2009,02,01,12,11,5.20
2009,02,01,12,12,5.20
2009,02,01,12,13,5.20
2009,02,01,12,14,5.20
2009,02,01,12,15,5.20
2009,02,01,12,16,5.20
2009,02,01,12,17,5.20
2009,02,01,12,18,5.20
2009,02,01,12,19,5.20
2009,02,01,12,20,5.20
2009,02,01,12,21,5.20
2009,02,01,12,22,5.20
2009,02,01,12,23,5.20
2009,02,01,12,24,5.20
2009,02,01,12,25,5.20
2009,02,01,12,26,5.20
2009,02,01,12,27,5.20
2009,02,01,12,28,5.20
2009,02,01,12,29,5.20
2009,02,01,12,30,5.20
2009,02,01,12,31,5.20
2009,02,01,12,32,5.20
2009,02,01,12,33,5.20
2009,02,01,12,34,5.20
2009,02,01,12,35,5.20
2009,02,01,12,36,5.20
2009,02,01,12,37,5.20
2009,02,01,12,38,5.20
2009,02,01,12,39,5.20
2009,02,01,12,40,5.20
2009,02,01,12,41,5.20
2009,02,01,12,42,5.20
2009,02,01,12,43,5.20
2009,02,01,12,44,5.20
2009,02,01,12,45,5.20
2009,02,01,12,46,5.20
2009,02,01,12,47,5.30
2009,02,01,12,48,5.30
2009,02,01,12,49,5.30
2009,02,01,12,50,5.30
2009,02,01,12,51,5.30
2009,02,01,12,52,5.30
2009,02,01,12,53,5.30
2009,02,01,12,54,5.30
2009,02,01,12,55,5.30
2009,02,01,12,56,5.30
2009,02,01,12,57,5.30
2009,02,01,12,58,5.30
2009,02,01,12,59,5.30
2009,02,01,13,00,5.30
2009,02,01,13,01,5.30
2009,02,01,13,02,5.30
2009,02,01,13,03,5.30
2009,02,01,13,04,5.20
2009,02,01,13,05,5.20
2009,02,01,13,06,5.20
2009,02,01,13,07,5.20
2009,02,01,13,08,5.10
2009,02,01,13,09,5.10
2009,02,01,13,10,5.10
2009,02,01,13,11,5.10
2009,02,01,13,12,5.10
2009,02,01,13,13,5.10
2009,02,01,13,14,5.10
2009,02,01,13,15,5.10
2009,02,01,13,16,5.10
2009,02,01,13,17,5.10
2009,02,01,13,18,5.10
2009,02,01,13,19,5.10
2009,02,01,13,20,5.10
2009,02,01,13,21,5.10
2009,02,01,13,22,5.10
2009,02,01,13,23,5.10
2009,02,01,13,24,5.10
2009,02,01,13,25,5.10
2009,02,01,13,26,5.10
2009,02,01,13,27,5.10
2009,02,01,13,28,5.10
2009,02,01,13,29,5.10
2009,02,01,13,30,5.10
2009,02,01,13,31,5.10
2009,02,01,13,32,5.10
2009,02,01,13,33,5.10
2009,02,01,13,34,5.10
2009,02,01,13,35,5.10
2009,02,01,13,36,5.10
2009,02,01,13,37,5.10
2009,02,01,13,38,5.10
2009,02,01,13,39,5.10
2009,02,01,13,40,5.10
2009,02,01,13,41,5.10
2009,02,01,13,42,5.10
2009,02,01,13,43,5.10
2009,02,01,13,44,5.10
2009,02,01,13,45,5.10
2009,02,01,13,46,5.10
2009,02,01,13,47,5.10
2009,02,01,13,48,5.10
2009,02,01,13,49,5.10
2009,02,01,13,50,5.20
2009,02,01,13,51,5.20
2009,02,01,13,52,5.20
2009,02,01,13,53,5.20
2009,02,01,13,54,5.20
2009,02,01,13,55,5.20
2009,02,01,13,56,5.20
2009,02,01,13,57,5.20
2009,02,01,13,58,5.30
2009,02,01,13,59,5.30
2009,02,01,14,00,5.30
2009,02,01,14,01,5.30
2009,02,01,14,02,5.30
2009,02,01,14,03,5.30
2009,02,01,14,04,5.30
2009,02,01,14,05,5.30
2009,02,01,14,06,5.30
2009,02,01,14,07,5.30
2009,02,01,14,08,5.30
2009,02,01,14,09,5.30
2009,02,01,14,10,5.30
2009,02,01,14,11,5.30
2009,02,01,14,12,5.30
2009,02,01,14,13,5.30
2009,02,01,14,14,5.30
2009,02,01,14,15,5.30
2009,02,01,14,16,5.30
2009,02,01,14,17,5.30
2009,02,01,14,18,5.30
2009,02,01,14,19,5.30
2009,02,01,14,20,5.30
2009,02,01,14,21,5.30
2009,02,01,14,22,5.30
2009,02,01,14,23,5.30
2009,02,01,14,24,5.30
2009,02,01,14,25,5.30
2009,02,01,14,26,5.30
2009,02,01,14,27,5.30
2009,02,01,14,28,5.40
2009,02,01,14,29,5.40
2009,02,01,14,30,5.40
2009,02,01,14,31,5.40
2009,02,01,14,32,5.40
2009,02,01,14,33,5.40
2009,02,01,14,34,5.50
2009,02,01,14,35,5.50
2009,02,01,14,36,5.50
2009,02,01,14,37,5.50
2009,02,01,14,38,5.50
2009,02,01,14,39,5.50
2009,02,01,14,40,5.50
2009,02,01,14,41,5.50
2009,02,01,14,42,5.50
2009,02,01,14,43,5.50
2009,02,01,14,44,5.50
2009,02,01,14,45,5.50
2009,02,01,14,46,5.50
2009,02,01,14,47,5.50
2009,02,01,14,48,5.50
2009,02,01,14,49,5.50
2009,02,01,14,50,5.50
2009,02,01,14,51,5.50
2009,02,01,14,52,5.40
2009,02,01,14,53,5.40
2009,02,01,14,54,5.40
2009,02,01,14,55,5.40
2009,02,01,14,56,5.40
2009,02,01,14,57,5.40
2009,02,01,14,58,5.40
2009,02,01,14,59,5.40
2009,02,01,15,00,5.40
2009,02,01,15,01,5.40
2009,02,01,15,02,5.40
2009,02,01,15,03,5.40
2009,02,01,15,04,5.40
2009,02,01,15,05,5.40
2009,02,01,15,06,5.40
2009,02,01,15,07,5.40
2009,02,01,15,08,5.40
2009,02,01,15,09,5.40
2009,02,01,15,10,5.40
2009,02,01,15,11,5.40
2009,02,01,15,12,5.40
2009,02,01,15,13,5.40
2009,02,01,15,14,5.40
2009,02,01,15,15,5.40
2009,02,01,15,16,5.40
2009,02,01,15,17,5.40
2009,02,01,15,18,5.40
2009,02,01,15,19,5.40
2009,02,01,15,20,5.40
2009,02,01,15,21,5.40
2009,02,01,15,22,5.40
2009,02,01,15,23,5.40
2009,02,01,15,24,5.40
2009,02,01,15,25,5.40
2009,02,01,15,26,5.40
2009,02,01,15,27,5.40
2009,02,01,15,28,5.40
2009,02,01,15,29,5.40
2009,02,01,15,30,5.40
2009,02,01,15,31,5.40
2009,02,01,15,32,5.40
2009,02,01,15,33,5.40
2009,02,01,15,34,5.40
2009,02,01,15,35,5.40
2009,02,01,15,36,5.40
2009,02,01,15,37,5.30
2009,02,01,15,38,5.30
2009,02,01,15,39,5.30
2009,02,01,15,40,5.30
2009,02,01,15,41,5.30
2009,02,01,15,42,5.30
2009,02,01,15,43,5.30
2009,02,01,15,44,5.30
2009,02,01,15,45,5.30
2009,02,01,15,46,5.30
2009,02,01,15,47,5.30
2009,02,01,15,48,5.30
2009,02,01,15,49,5.30
2009,02,01,15,50,5.30
2009,02,01,15,51,5.30
2009,02,01,15,52,5.30
2009,02,01,15,53,5.30
2009,02,01,15,54,5.30
2009,02,01,15,55,5.30
2009,02,01,15,56,5.40
2009,02,01,15,57,5.40
2009,02,01,15,58,5.40
2009,02,01,15,59,5.40
2009,02,01,16,00,5.40
2009,02,01,16,01,5.40
2009,02,01,16,02,5.40
2009,02,01,16,03,5.40
2009,02,01,16,04,5.40
2009,02,01,16,05,5.40
2009,02,01,16,06,5.40
2009,02,01,16,07,5.40
2009,02,01,16,08,5.40
2009,02,01,16,09,5.40
2009,02,01,16,10,5.40
2009,02,01,16,11,5.40
2009,02,01,16,12,5.40
2009,02,01,16,13,5.40
2009,02,01,16,14,5.40
2009,02,01,16,15,5.40
2009,02,01,16,16,5.40
2009,02,01,16,17,5.40
2009,02,01,16,18,5.40
2009,02,01,16,19,5.40
2009,02,01,16,20,5.40
2009,02,01,16,21,5.40
2009,02,01,16,22,5.40
2009,02,01,16,23,5.40
2009,02,01,16,24,5.40
2009,02,01,16,25,5.40
2009,02,01,16,26,5.30
2009,02,01,16,27,5.30
2009,02,01,16,28,5.40
2009,02,01,16,29,5.40
2009,02,01,16,30,5.40
2009,02,01,16,31,5.40
2009,02,01,16,32,5.40
2009,02,01,16,33,5.40
2009,02,01,16,34,5.40
2009,02,01,16,35,5.40
2009,02,01,16,36,5.40
2009,02,01,16,37,5.40
2009,02,01,16,38,5.40
2009,02,01,16,39,5.40
2009,02,01,16,40,5.40
2009,02,01,16,41,5.40
2009,02,01,16,42,5.30
2009,02,01,16,43,5.30
2009,02,01,16,44,5.30
2009,02,01,16,45,5.30
2009,02,01,16,46,5.30
2009,02,01,16,47,5.30
2009,02,01,16,48,5.30
2009,02,01,16,49,5.30
2009,02,01,16,50,5.30
2009,02,01,16,51,5.30
2009,02,01,16,52,5.30
2009,02,01,16,53,5.30
2009,02,01,16,54,5.30
2009,02,01,16,55,5.30
2009,02,01,16,56,5.30
2009,02,01,16,57,5.30
2009,02,01,16,58,5.30
2009,02,01,16,59,5.30
2009,02,01,17,00,5.30
2009,02,01,17,01,5.30
2009,02,01,17,02,5.30
2009,02,01,17,03,5.30
2009,02,01,17,04,5.30
2009,02,01,17,05,5.30
2009,02,01,17,06,5.30
2009,02,01,17,07,5.30
2009,02,01,17,08,5.20
2009,02,01,17,09,5.20
2009,02,01,17,10,5.20
2009,02,01,17,11,5.20
2009,02,01,17,12,5.20
2009,02,01,17,13,5.20
2009,02,01,17,14,5.20
2009,02,01,17,15,5.20
2009,02,01,17,16,5.20
2009,02,01,17,17,5.20
2009,02,01,17,18,5.20
2009,02,01,17,19,5.20
2009,02,01,17,20,5.20
2009,02,01,17,21,5.20
2009,02,01,17,22,5.20
2009,02,01,17,23,5.20
2009,02,01,17,24,5.10
2009,02,01,17,25,5.10
2009,02,01,17,26,5.10
2009,02,01,17,27,5.10
2009,02,01,17,28,5.10
2009,02,01,17,29,5.10
2009,02,01,17,30,5.10
2009,02,01,17,31,5.10
2009,02,01,17,32,5.10
2009,02,01,17,33,5.00
2009,02,01,17,34,4.90
2009,02,01,17,35,4.90
2009,02,01,17,36,4.90
2009,02,01,17,37,4.90
2009,02,01,17,38,4.90
2009,02,01,17,39,4.90
2009,02,01,17,40,4.90
2009,02,01,17,41,4.90
2009,02,01,17,42,4.90
2009,02,01,17,43,4.90
2009,02,01,17,44,4.90
2009,02,01,17,45,4.90
2009,02,01,17,46,4.90
2009,02,01,17,47,4.90
2009,02,01,17,48,4.90
2009,02,01,17,49,4.90
2009,02,01,17,50,4.90
2009,02,01,17,51,4.90
2009,02,01,17,52,4.90
2009,02,01,17,53,4.90
2009,02,01,17,54,4.90
2009,02,01,17,55,4.90
2009,02,01,17,56,4.90
2009,02,01,17,57,4.90
2009,02,01,17,58,4.90
2009,02,01,17,59,4.90
2009,02,01,18,00,4.90
2009,02,01,18,01,4.90
2009,02,01,18,02,4.90
2009,02,01,18,03,4.90
2009,02,01,18,04,4.90
2009,02,01,18,05,4.90
2009,02,01,18,06,4.90